Ravenna, OH

10:05 PM EDT on August 16, 2017 (GMT -0400)
Ravenna

Weather History for KPOV - November, 2012

Change the Weather History Date:

Saturday, November 17, 2012

  Actual Average (KCAK) Record (KCAK)
Temperature  
Mean Temperature 40 °F -  
Max Temperature 54 °F 48 °F 72 °F (1958)
Min Temperature 27 °F 32 °F 9 °F (1933)
Degree Days  
Heating Degree Days 24    
Moisture  
Dew Point 30 °F    
Average Humidity 74    
Maximum Humidity 100    
Minimum Humidity 38    
Precipitation  
Precipitation 0.00 in - - ()
Sea Level Pressure  
Sea Level Pressure 30.55 in    
Wind  
Wind Speed 3 mph (ENE)    
Max Wind Speed 7 mph    
Max Gust Speed -    
Visibility 7 miles    
Events      
Averages and records for this station are not official NWS values.
T = Trace of Precipitation, MM = Missing Value Source: NWS Daily Summary

Daily Weather History Graph

Daily Weather History Graph

Search for Another Location

Airport or City:

Trip Planner

Search our weather history database for the weather conditions in past years. The results will help you decide how hot, cold, wet, or windy it might be!

Date:

Astronomy

Nov. 17, 2012 Rise Set
Actual Time 7:15 AM EST 5:03 PM EST
Civil Twilight 6:46 AM EST 5:33 PM EST
Nautical Twilight 6:12 AM EST 6:07 PM EST
Astronomical Twilight 5:39 AM EST 6:39 PM EST
Moon 10:59 AM EST 9:12 PM EST
Length of Visible Light 10h 47m
Length of Day
9h 47m
Waxing Crescent, 20% of the Moon is Illuminated
Nov 17
Waxing Crescent
Nov 20
First Quarter
Nov 28
Full
Dec 6
Last Quarter
Dec 13
New

Hourly Weather History & Observations

Time (EST) Temp. Windchill Dew Point Humidity Pressure Visibility Wind Dir Wind Speed Gust Speed Precip Events Conditions
12:15 AM 31.3 °F - 31.5 °F 100% 30.50 in 4.0 mi Calm Calm - N/A   Clear
12:34 AM 31.1 °F - 31.1 °F 100% 30.50 in 4.0 mi Calm Calm - N/A   Clear
12:55 AM 31.1 °F - 31.1 °F 100% 30.50 in 2.5 mi Calm Calm - N/A   Clear
1:15 AM 29.5 °F - 29.7 °F 100% 30.49 in 2.5 mi Calm Calm - N/A   Clear
1:34 AM - - - N/A% 30.50 in 2.5 mi Calm Calm - N/A   Clear
1:54 AM 29.8 °F - 30.0 °F 100% 30.50 in 2.5 mi Calm Calm - N/A   Clear
2:15 AM 29.7 °F - 29.8 °F 100% 30.50 in 2.0 mi Calm Calm - N/A   Clear
2:34 AM 28.2 °F - 28.4 °F 100% 30.51 in 3.0 mi Calm Calm - N/A   Clear
2:54 AM 27.9 °F - 28.0 °F 100% 30.51 in 2.0 mi Calm Calm - N/A   Clear
3:14 AM 28.6 °F 24.8 °F 28.8 °F 100% 30.51 in 2.0 mi ENE 3.5 mph - N/A   Clear
3:34 AM 28.2 °F 24.4 °F 28.4 °F 100% 30.51 in 2.0 mi East 3.5 mph - N/A   Clear
3:55 AM 27.5 °F 23.6 °F 27.7 °F 100% 30.52 in 2.0 mi East 3.5 mph - N/A   Clear
4:15 AM 27.9 °F 24.0 °F 28.0 °F 100% 30.52 in 1.0 mi East 3.5 mph - N/A   Unknown
4:34 AM 28.0 °F 24.2 °F 28.2 °F 100% 30.52 in 1.5 mi East 3.5 mph - N/A   Unknown
4:54 AM 27.1 °F 21.8 °F 27.1 °F 100% 30.53 in 2.5 mi ENE 4.6 mph - N/A   Clear
5:15 AM 29.5 °F 24.5 °F 29.7 °F 100% 30.54 in 4.0 mi ENE 4.6 mph - N/A   Clear
5:34 AM 30.6 °F 25.8 °F 30.7 °F 100% 30.54 in 4.0 mi NE 4.6 mph - N/A   Clear
5:54 AM - - - N/A% 30.54 in 4.0 mi ENE 4.6 mph - N/A   Clear
6:15 AM 32.0 °F 27.5 °F 32.0 °F 100% 30.54 in 5.0 mi ENE 4.6 mph - N/A   Clear
6:34 AM - - - N/A% 30.55 in 4.0 mi ENE 3.5 mph - N/A   Clear
6:54 AM - - - N/A% 30.55 in 5.0 mi East 3.5 mph - N/A   Clear
7:15 AM 28.2 °F 23.1 °F 28.4 °F 100% 30.56 in 2.5 mi East 4.6 mph - N/A   Clear
7:34 AM 28.4 °F 23.3 °F 28.6 °F 100% 30.57 in 3.0 mi ENE 4.6 mph - N/A   Clear
7:55 AM 30.6 °F 25.8 °F 30.6 °F 100% 30.57 in 3.0 mi East 4.6 mph - N/A   Clear
8:15 AM 31.6 °F 28.3 °F 31.8 °F 100% 30.58 in 4.0 mi East 3.5 mph - N/A   Clear
8:34 AM 33.8 °F 29.6 °F 33.8 °F 100% 30.58 in 5.0 mi East 4.6 mph - N/A   Clear
8:54 AM 36.7 °F 32.9 °F 34.5 °F 92% 30.58 in 7.0 mi ENE 4.6 mph - N/A   Clear
9:15 AM 39.2 °F 35.0 °F 33.8 °F 81% 30.59 in 10.0 mi East 5.8 mph - N/A   Clear
9:34 AM 41.0 °F 38.0 °F 34.5 °F 78% 30.59 in 10.0 mi East 4.6 mph - N/A   Clear
9:54 AM 43.5 °F 40.1 °F 33.8 °F 69% 30.59 in 10.0 mi East 5.8 mph - N/A   Clear
10:14 AM 44.1 °F 40.1 °F 32.9 °F 65% 30.60 in 10.0 mi East 6.9 mph - N/A   Clear
10:34 AM 45.1 °F 42.0 °F 33.4 °F 64% 30.60 in 10.0 mi East 5.8 mph - N/A   Clear
10:55 AM 46.8 °F - 32.4 °F 57% 30.60 in 10.0 mi East 4.6 mph - N/A   Clear
11:15 AM 47.7 °F - 32.2 °F 55% 30.60 in 10.0 mi ENE 3.5 mph - N/A   Clear
11:34 AM 48.6 °F - 32.0 °F 53% 30.59 in 10.0 mi ENE 3.5 mph - N/A   Clear
11:55 AM 49.8 °F - 31.1 °F 49% 30.59 in 10.0 mi Calm Calm - N/A   Clear
12:15 PM 50.2 °F - 30.4 °F 47% 30.58 in 10.0 mi ENE 3.5 mph - N/A   Clear
12:34 PM 51.3 °F - 29.8 °F 44% 30.57 in 10.0 mi East 4.6 mph - N/A   Clear
12:54 PM 52.0 °F - 30.6 °F 44% 30.57 in 10.0 mi ENE 5.8 mph - N/A   Clear
1:15 PM 53.1 °F - 30.0 °F 41% 30.56 in 10.0 mi East 5.8 mph - N/A   Clear
1:34 PM 53.2 °F - 28.8 °F 39% 30.56 in 10.0 mi ESE 3.5 mph - N/A   Clear
1:54 PM 52.9 °F - 28.4 °F 39% 30.55 in 10.0 mi ENE 6.9 mph - N/A   Clear
2:15 PM 54.0 °F - 28.9 °F 38% 30.55 in 10.0 mi East 3.5 mph - N/A   Clear
2:34 PM 53.2 °F - 28.6 °F 39% 30.55 in 10.0 mi ENE 5.8 mph - N/A   Clear
2:54 PM 53.6 °F - 28.2 °F 38% 30.55 in 10.0 mi ENE 5.8 mph - N/A   Clear
3:15 PM 53.2 °F - 27.9 °F 38% 30.54 in 10.0 mi NE 5.8 mph - N/A   Clear
3:34 PM 52.9 °F - 30.0 °F 42% 30.54 in 10.0 mi ENE 4.6 mph - N/A   Clear
3:55 PM 51.4 °F - 30.2 °F 44% 30.54 in 10.0 mi ENE 4.6 mph - N/A   Clear
4:15 PM 50.4 °F - 31.5 °F 48% 30.54 in 10.0 mi East 3.5 mph - N/A   Clear
4:34 PM 48.2 °F - 30.7 °F 51% 30.54 in 10.0 mi ENE 4.6 mph - N/A   Clear
4:54 PM 46.4 °F 45.2 °F 29.8 °F 53% 30.54 in 10.0 mi NE 3.5 mph - N/A   Clear
5:15 PM 44.4 °F - 30.0 °F 57% 30.54 in 10.0 mi Calm Calm - N/A   Clear
5:35 PM 42.3 °F - 31.1 °F 65% 30.54 in 10.0 mi Calm Calm - N/A   Clear
5:54 PM 42.8 °F - 29.5 °F 59% 30.54 in 10.0 mi Calm Calm - N/A   Clear
6:15 PM 39.7 °F - 29.5 °F 67% 30.54 in 10.0 mi Calm Calm - N/A   Clear
6:34 PM 39.4 °F - 29.3 °F 67% 30.55 in 10.0 mi Calm Calm - N/A   Clear
7:15 PM 38.1 °F 35.7 °F 28.4 °F 68% 30.54 in 7.0 mi ENE 3.5 mph - N/A   Clear
7:34 PM 37.9 °F 35.5 °F 28.4 °F 69% 30.54 in 7.0 mi NE 3.5 mph - N/A   Clear
7:55 PM 38.5 °F 35.0 °F 28.2 °F 67% 30.54 in 7.0 mi ENE 4.6 mph - N/A   Clear
8:15 PM 37.6 °F 34.0 °F 28.2 °F 69% 30.54 in 7.0 mi ENE 4.6 mph - N/A   Clear
8:34 PM 37.4 °F 32.8 °F 28.2 °F 69% 30.55 in 7.0 mi ENE 5.8 mph - N/A   Clear
8:54 PM 36.1 °F 31.4 °F 28.0 °F 72% 30.55 in 7.0 mi ENE 5.8 mph - N/A   Clear
9:15 PM 36.7 °F 32.9 °F 29.1 °F 74% 30.55 in 5.0 mi ENE 4.6 mph - N/A   Clear
9:34 PM 37.8 °F 34.2 °F 30.0 °F 74% 30.54 in 5.0 mi East 4.6 mph - N/A   Clear
9:54 PM 37.8 °F 33.3 °F 30.6 °F 75% 30.54 in 10.0 mi ENE 5.8 mph - N/A   Clear
10:15 PM 36.3 °F 31.6 °F 30.4 °F 79% 30.54 in 10.0 mi ENE 5.8 mph - N/A   Clear
10:34 PM 36.5 °F 31.8 °F 31.1 °F 81% 30.54 in 7.0 mi ENE 5.8 mph - N/A   Clear
10:55 PM 35.2 °F 30.3 °F 30.6 °F 83% 30.53 in 7.0 mi ENE 5.8 mph - N/A   Clear
11:15 PM 34.9 °F 29.9 °F 30.4 °F 84% 30.53 in 7.0 mi ENE 5.8 mph - N/A   Clear
11:34 PM 35.8 °F 30.1 °F 31.1 °F 83% 30.53 in 7.0 mi ENE 6.9 mph - N/A   Clear
11:55 PM 34.9 °F 29.0 °F 30.7 °F 85% 30.52 in 7.0 mi ENE 6.9 mph - N/A   Clear